Regional Weather Roundup
Issued by NWS

Home | Current Version | Previous Version | Text Only | Print | Product List | Glossary Off
Versions: 1 2 3 4 5 6 7 8 9 10 11 12 13 14 15 16 17 18 19 20 21 22 23 24 25 26 27 28 29 30 31 32 33 34 35 36 37 38 39 40 41 42 43 44 45 46 47 48 49 50

000
ASUS43 KOAX 270402
RWRNE

WEATHER ROUNDUP FOR NEBRASKA
NATIONAL WEATHER SERVICE OMAHA NE
1000 PM CST THU FEB 26 2015

NOTES: SATELLITE DATA IS BEING USED TO AUGMENT CLOUD COVER ABOVE
       12000 FEET.
       "FAIR" INDICATES FEW OR NO CLOUDS BELOW 12,000 FEET WITH NO
       SIGNIFICANT WEATHER AND/OR OBSTRUCTIONS TO VISIBILITY.

  * THESE STATIONS DO NOT REPORT WEATHER SUCH AS RAIN...SNOW OR FOG.

NEZ001>004-019>022-054>056-270500-
NEBRASKA PANHANDLE

CITY           SKY/WX    TMP DP  RH WIND       PRES   REMARKS
SCOTTSBLUFF    CLOUDY     8   0  69 E7        30.30S WCI  -3
ALLIANCE       CLEAR      2  -3  80 E3        30.30S
CHADRON        CLEAR     -3  -8  79 SE5       30.38S WCI -13
SIDNEY         CLOUDY     9   1  70 E9        30.28R WCI  -4
$$

NEZ057>060-069>072-079>082-270500-
SOUTHWEST NEBRASKA

CITY           SKY/WX    TMP DP  RH WIND       PRES   REMARKS
NORTH PLATTE   CLEAR      2  -7  66 SE3       30.43R
IMPERIAL         N/A      9  -2  61 NE8       30.38R WCI  -3
MCCOOK         CLEAR     10  -3  55 NE5       30.45R WCI   2
$$

NEZ005>010-023>029-035>040-094-270500-
NORTH CENTRAL NEBRASKA

CITY           SKY/WX    TMP DP  RH WIND       PRES   REMARKS
VALENTINE      CLEAR      1  -5  75 CALM      30.45R
AINSWORTH      CLEAR      2  -4  75 CALM      30.44S
BROKEN BOW     CLEAR     -1  -8  72 N5        30.45R WCI -11
ORD            CLEAR      1  -7  68 CALM      30.49S
$$

NEZ041-046>049-061>064-073>077-083>087-270500-
SOUTH CENTRAL NEBRASKA

CITY           SKY/WX    TMP DP  RH WIND       PRES   REMARKS
GRAND ISLAND   CLEAR      2  -4  76 N8        30.53R WCI -12
HASTINGS       CLEAR      3  -5  69 NE6       30.50R WCI  -8
HEBRON         CLEAR      5  -2  71 CALM      30.56R
HOLDREGE       CLEAR      2 -10  57 NE6       30.47R WCI  -9
KEARNEY *      CLEAR      1  -8  66 NE7       30.49R WCI -11
YORK             N/A      1  -2  85 N5        30.53R WCI  -8
$$

NEZ011>018-030>034-042>045-270500-
NORTHEAST NEBRASKA

CITY           SKY/WX    TMP DP  RH WIND       PRES   REMARKS
NORFOLK        CLEAR      2  -5  72 N5        30.54R WCI  -8
BLAIR          CLEAR      5  -2  72 NW7       30.54R WCI  -7
COLUMBUS *     CLEAR      3  -6  66 N3        30.55S
TEKAMAH        CLEAR      1  -5  75 NW6       30.59R WCI -10
WAYNE          CLEAR     -6 -12  76 CALM      30.56R
$$

NEZ050>053-065>068-078-088>093-270500-
SOUTHEAST NEBRASKA

CITY           SKY/WX    TMP DP  RH WIND       PRES   REMARKS
LINCOLN        CLEAR      4  -2  76 N3        30.58R
OMAHA EPPLEY   CLEAR      3  -2  79 NW5       30.59R WCI  -6
FALLS CITY     CLEAR      5  -4  66 CALM      30.59R
$$

NEZ044-045-051>053-067-270500-
OMAHA AREA

CITY           SKY/WX    TMP DP  RH WIND       PRES   REMARKS
OMAHA EPPLEY   CLEAR      3  -2  79 NW5       30.59R WCI  -6
BLAIR          CLEAR      5  -2  72 NW7       30.54R WCI  -7
OFFUTT AFB     CLEAR      6  -2  69 N5        30.58R WCI  -3
$$


USA.gov is the U.S. government's official web portal to all federal, state and local government web resources and services.